Time,TemperatureF,DewpointF,PressureIn,WindDirection,WindDirectionDegrees,WindSpeedMPH,WindSpeedGustMPH,Humidity,HourlyPrecipIn,Conditions,Clouds,dailyrainin,SoftwareType,DateUTC
2013-02-11 00:01:00,47.0,33.0,30.00,WSW,245,0.0,0.0,59,0.00,,,0.00,,2013-02-11 07:01:00,
2013-02-11 00:11:00,46.0,34.0,30.00,SSW,210,2.0,3.0,62,0.00,,,0.00,,2013-02-11 07:11:00,
2013-02-11 00:21:00,46.0,34.0,30.00,SSW,210,2.0,3.0,62,0.00,,,0.00,,2013-02-11 07:21:00,
2013-02-11 00:31:00,45.0,33.0,30.00,SW,214,2.0,2.0,63,0.00,,,0.00,,2013-02-11 07:31:00,
2013-02-11 00:41:00,45.0,34.0,30.00,WSW,250,1.0,2.0,64,0.00,,,0.00,,2013-02-11 07:41:00,
2013-02-11 00:52:00,45.0,34.0,30.00,WSW,250,1.0,2.0,64,0.00,,,0.00,,2013-02-11 07:52:00,
2013-02-11 01:01:00,45.0,34.0,30.00,WSW,250,0.0,0.0,64,0.00,,,0.00,,2013-02-11 08:01:00,
2013-02-11 01:11:00,45.0,34.0,30.00,WSW,250,0.0,0.0,65,0.00,,,0.00,,2013-02-11 08:11:00,
2013-02-11 01:21:00,45.0,34.0,30.00,WSW,250,0.0,0.0,65,0.00,,,0.00,,2013-02-11 08:21:00,
2013-02-11 01:31:00,44.0,33.0,30.00,WSW,250,1.0,2.0,65,0.00,,,0.00,,2013-02-11 08:31:00,
2013-02-11 01:42:00,44.0,34.0,30.00,WSW,250,1.0,2.0,67,0.00,,,0.00,,2013-02-11 08:42:00,
2013-02-11 01:52:00,44.0,34.0,30.00,WSW,250,1.0,2.0,67,0.00,,,0.00,,2013-02-11 08:52:00,
2013-02-11 02:01:00,43.0,33.0,30.01,WSW,250,1.0,2.0,68,0.00,,,0.00,,2013-02-11 09:01:00,
2013-02-11 02:12:00,43.0,33.0,30.01,WSW,250,1.0,2.0,68,0.00,,,0.00,,2013-02-11 09:12:00,
2013-02-11 02:21:00,42.0,33.0,30.01,WSW,250,0.0,1.0,70,0.00,,,0.00,,2013-02-11 09:21:00,
2013-02-11 02:31:00,42.0,33.0,30.01,SSW,209,1.0,1.0,69,0.00,,,0.00,,2013-02-11 09:31:00,
2013-02-11 02:41:00,42.0,33.0,30.01,SSW,209,1.0,1.0,69,0.00,,,0.00,,2013-02-11 09:41:00,
2013-02-11 02:52:00,42.0,33.0,30.01,SSW,209,0.0,1.0,70,0.00,,,0.00,,2013-02-11 09:52:00,
2013-02-11 03:01:00,42.0,33.0,30.01,SSW,209,0.0,1.0,71,0.00,,,0.00,,2013-02-11 10:01:00,
2013-02-11 03:11:00,42.0,33.0,30.01,SSW,209,0.0,1.0,71,0.00,,,0.00,,2013-02-11 10:11:00,
2013-02-11 03:21:00,42.0,34.0,30.00,SSW,209,0.0,0.0,72,0.00,,,0.00,,2013-02-11 10:21:00,
2013-02-11 03:31:00,42.0,34.0,30.00,SSW,209,0.0,0.0,72,0.00,,,0.00,,2013-02-11 10:31:00,
2013-02-11 03:41:00,42.0,34.0,30.00,SSW,209,0.0,0.0,72,0.00,,,0.00,,2013-02-11 10:41:00,
2013-02-11 03:52:00,41.0,33.0,30.00,SSW,209,0.0,1.0,72,0.00,,,0.00,,2013-02-11 10:52:00,
2013-02-11 04:01:00,41.0,33.0,30.00,SSW,210,0.0,0.0,73,0.00,,,0.00,,2013-02-11 11:01:00,
2013-02-11 04:11:00,41.0,33.0,30.00,SSW,210,0.0,0.0,73,0.00,,,0.00,,2013-02-11 11:11:00,
2013-02-11 04:21:00,41.0,33.0,30.00,SSW,210,2.0,3.0,73,0.00,,,0.00,,2013-02-11 11:21:00,
2013-02-11 04:32:00,41.0,33.0,30.00,SSW,207,1.0,2.0,74,0.00,,,0.00,,2013-02-11 11:32:00,
2013-02-11 04:42:00,41.0,33.0,30.00,WSW,256,0.0,1.0,74,0.00,,,0.00,,2013-02-11 11:42:00,
2013-02-11 04:52:00,41.0,33.0,30.00,WSW,256,0.0,1.0,74,0.00,,,0.00,,2013-02-11 11:52:00,
2013-02-11 05:02:00,41.0,33.0,30.00,WNW,301,1.0,2.0,74,0.00,,,0.00,,2013-02-11 12:02:00,
2013-02-11 05:12:00,41.0,33.0,30.00,WNW,301,1.0,2.0,74,0.00,,,0.00,,2013-02-11 12:12:00,
2013-02-11 05:22:00,41.0,34.0,30.00,West,265,2.0,4.0,75,0.00,,,0.00,,2013-02-11 12:22:00,
2013-02-11 05:31:00,41.0,34.0,30.00,WSW,255,3.0,4.0,75,0.00,,,0.00,,2013-02-11 12:31:00,
2013-02-11 05:42:00,42.0,34.0,30.00,West,270,4.0,7.0,73,0.00,,,0.00,,2013-02-11 12:42:00,
2013-02-11 05:52:00,42.0,34.0,30.00,West,270,4.0,7.0,73,0.00,,,0.00,,2013-02-11 12:52:00,
2013-02-11 06:01:00,43.0,35.0,30.01,West,278,3.0,4.0,73,0.00,,,0.00,,2013-02-11 13:01:00,
2013-02-11 06:11:00,44.0,36.0,30.01,West,280,2.0,4.0,72,0.00,,,0.00,,2013-02-11 13:11:00,
2013-02-11 06:21:00,44.0,36.0,30.01,West,280,2.0,4.0,72,0.00,,,0.00,,2013-02-11 13:21:00,
2013-02-11 06:32:00,45.0,36.0,30.02,WNW,293,2.0,4.0,71,0.00,,,0.00,,2013-02-11 13:32:00,
2013-02-11 06:41:00,45.0,36.0,30.02,WNW,293,2.0,4.0,71,0.00,,,0.00,,2013-02-11 13:41:00,
2013-02-11 06:52:00,44.0,35.0,30.02,NW,322,1.0,1.0,71,0.00,,,0.00,,2013-02-11 13:52:00,
2013-02-11 07:01:00,44.0,36.0,30.03,WNW,303,0.0,2.0,72,0.00,,,0.00,,2013-02-11 14:01:00,
2013-02-11 07:11:00,44.0,36.0,30.03,WNW,303,0.0,2.0,72,0.00,,,0.00,,2013-02-11 14:11:00,
2013-02-11 07:21:00,43.0,35.0,30.03,South,174,1.0,2.0,73,0.00,,,0.00,,2013-02-11 14:21:00,
2013-02-11 07:32:00,42.0,34.0,30.04,SSE,161,0.0,2.0,74,0.00,,,0.00,,2013-02-11 14:32:00,
2013-02-11 07:41:00,42.0,35.0,30.05,SSE,166,0.0,0.0,75,0.00,,,0.00,,2013-02-11 14:41:00,
2013-02-11 07:52:00,42.0,35.0,30.05,SSE,166,0.0,0.0,75,0.00,,,0.00,,2013-02-11 14:52:00,
2013-02-11 08:01:00,42.0,36.0,30.05,SSE,166,0.0,1.0,78,0.00,,,0.00,,2013-02-11 15:01:00,
2013-02-11 08:11:00,42.0,36.0,30.05,SSE,166,0.0,1.0,78,0.00,,,0.00,,2013-02-11 15:11:00,
2013-02-11 08:22:00,44.0,37.0,30.06,SSE,166,0.0,0.0,75,0.00,,,0.00,,2013-02-11 15:22:00,
2013-02-11 08:31:00,44.0,36.0,30.06,SSE,166,0.0,1.0,74,0.00,,,0.00,,2013-02-11 15:31:00,
2013-02-11 08:41:00,44.0,37.0,30.07,SSE,166,0.0,0.0,75,0.00,,,0.00,,2013-02-11 15:41:00,
2013-02-11 08:52:00,44.0,37.0,30.07,SSE,166,0.0,0.0,75,0.00,,,0.00,,2013-02-11 15:52:00,
2013-02-11 09:01:00,45.0,38.0,30.08,SSE,166,0.0,0.0,75,0.00,,,0.00,,2013-02-11 16:01:00,
2013-02-11 09:11:00,45.0,38.0,30.08,SSE,166,0.0,0.0,75,0.00,,,0.00,,2013-02-11 16:11:00,
2013-02-11 09:21:00,48.0,39.0,30.08,SSE,166,0.0,0.0,70,0.00,,,0.00,,2013-02-11 16:21:00,
2013-02-11 09:31:00,50.0,35.0,30.09,NNW,344,2.0,5.0,57,0.00,,,0.00,,2013-02-11 16:31:00,
2013-02-11 09:41:00,53.0,36.0,30.09,NW,310,2.0,3.0,52,0.00,,,0.00,,2013-02-11 16:41:00,
2013-02-11 09:52:00,53.0,36.0,30.09,NW,310,2.0,3.0,52,0.00,,,0.00,,2013-02-11 16:52:00,
2013-02-11 10:01:00,54.0,34.0,30.10,NW,316,5.0,10.0,47,0.00,,,0.00,,2013-02-11 17:01:00,
2013-02-11 10:11:00,54.0,34.0,30.10,NW,316,5.0,10.0,47,0.00,,,0.00,,2013-02-11 17:11:00,
2013-02-11 10:21:00,55.0,35.0,30.10,NNW,333,9.0,10.0,46,0.00,,,0.00,,2013-02-11 17:21:00,
2013-02-11 10:31:00,56.0,34.0,30.11,NW,325,8.0,11.0,44,0.00,,,0.00,,2013-02-11 17:31:00,
2013-02-11 10:41:00,56.0,34.0,30.11,NW,325,8.0,11.0,44,0.00,,,0.00,,2013-02-11 17:41:00,
2013-02-11 10:52:00,56.0,35.0,30.11,NNW,335,6.0,8.0,45,0.00,,,0.00,,2013-02-11 17:52:00,
2013-02-11 11:01:00,57.0,35.0,30.12,NNW,348,7.0,11.0,43,0.00,,,0.00,,2013-02-11 18:01:00,
2013-02-11 11:11:00,57.0,35.0,30.12,NNW,348,7.0,11.0,43,0.00,,,0.00,,2013-02-11 18:11:00,
2013-02-11 11:21:00,57.0,35.0,30.12,NW,324,8.0,13.0,43,0.00,,,0.00,,2013-02-11 18:21:00,
2013-02-11 11:31:00,57.0,35.0,30.12,NNW,339,8.0,13.0,44,0.00,,,0.00,,2013-02-11 18:31:00,
2013-02-11 11:41:00,57.0,36.0,30.13,NNW,341,7.0,8.0,45,0.00,,,0.00,,2013-02-11 18:41:00,
2013-02-11 11:53:00,57.0,36.0,30.13,NNW,341,7.0,8.0,45,0.00,,,0.00,,2013-02-11 18:53:00,
2013-02-11 12:01:00,57.0,34.0,30.13,North,349,9.0,10.0,42,0.00,,,0.00,,2013-02-11 19:01:00,
2013-02-11 12:11:00,57.0,34.0,30.12,NNW,345,4.0,9.0,42,0.00,,,0.00,,2013-02-11 19:11:00,
2013-02-11 12:21:00,57.0,34.0,30.12,NNW,345,4.0,9.0,42,0.00,,,0.00,,2013-02-11 19:21:00,
2013-02-11 12:31:00,58.0,33.0,30.11,NNW,343,9.0,18.0,39,0.00,,,0.00,,2013-02-11 19:31:00,
2013-02-11 12:41:00,58.0,33.0,30.11,NNW,343,9.0,18.0,39,0.00,,,0.00,,2013-02-11 19:41:00,
2013-02-11 12:51:00,59.0,33.0,30.11,North,354,11.0,14.0,37,0.00,,,0.00,,2013-02-11 19:51:00,
2013-02-11 13:01:00,60.0,32.0,30.11,North,352,8.0,12.0,35,0.00,,,0.00,,2013-02-11 20:01:00,
2013-02-11 13:11:00,60.0,31.0,30.11,NNW,337,8.0,11.0,33,0.00,,,0.00,,2013-02-11 20:11:00,
2013-02-11 13:21:00,60.0,31.0,30.11,NNW,337,8.0,11.0,33,0.00,,,0.00,,2013-02-11 20:21:00,
2013-02-11 13:31:00,60.0,31.0,30.11,NW,317,11.0,15.0,33,0.00,,,0.00,,2013-02-11 20:31:00,
2013-02-11 13:41:00,60.0,30.0,30.11,NNW,347,8.0,8.0,32,0.00,,,0.00,,2013-02-11 20:41:00,
2013-02-11 13:52:00,60.0,30.0,30.11,NNW,347,8.0,8.0,32,0.00,,,0.00,,2013-02-11 20:52:00,
2013-02-11 14:01:00,61.0,29.0,30.10,NW,313,11.0,13.0,30,0.00,,,0.00,,2013-02-11 21:01:00,
2013-02-11 14:11:00,61.0,29.0,30.10,NNW,340,9.0,14.0,29,0.00,,,0.00,,2013-02-11 21:11:00,
2013-02-11 14:21:00,61.0,29.0,30.10,NNW,340,9.0,14.0,29,0.00,,,0.00,,2013-02-11 21:21:00,
2013-02-11 14:31:00,61.0,28.0,30.09,North,11,9.0,13.0,28,0.00,,,0.00,,2013-02-11 21:31:00,
2013-02-11 14:41:00,61.0,28.0,30.09,North,11,9.0,13.0,28,0.00,,,0.00,,2013-02-11 21:41:00,
2013-02-11 14:52:00,61.0,28.0,30.09,NNW,345,7.0,9.0,28,0.00,,,0.00,,2013-02-11 21:52:00,
2013-02-11 15:01:00,61.0,27.0,30.09,NW,326,6.0,10.0,27,0.00,,,0.00,,2013-02-11 22:01:00,
2013-02-11 15:11:00,61.0,25.0,30.09,NNE,13,7.0,11.0,25,0.00,,,0.00,,2013-02-11 22:11:00,
2013-02-11 15:21:00,61.0,25.0,30.09,NNE,13,7.0,11.0,25,0.00,,,0.00,,2013-02-11 22:21:00,
2013-02-11 15:31:00,61.0,27.0,30.09,NNE,12,7.0,8.0,27,0.00,,,0.00,,2013-02-11 22:31:00,
2013-02-11 15:41:00,61.0,27.0,30.09,NNE,12,7.0,8.0,27,0.00,,,0.00,,2013-02-11 22:41:00,
2013-02-11 15:52:00,61.0,24.0,30.09,NW,308,6.0,9.0,24,0.00,,,0.00,,2013-02-11 22:52:00,
2013-02-11 16:01:00,61.0,26.0,30.09,NNW,338,6.0,9.0,26,0.00,,,0.00,,2013-02-11 23:01:00,
2013-02-11 16:11:00,61.0,26.0,30.09,NNW,338,6.0,9.0,26,0.00,,,0.00,,2013-02-11 23:11:00,
2013-02-11 16:21:00,61.0,24.0,30.09,North,4,5.0,5.0,24,0.00,,,0.00,,2013-02-11 23:21:00,
2013-02-11 16:31:00,61.0,24.0,30.09,NW,323,9.0,13.0,24,0.00,,,0.00,,2013-02-11 23:31:00,
2013-02-11 16:41:00,61.0,24.0,30.09,NW,323,9.0,13.0,24,0.00,,,0.00,,2013-02-11 23:41:00,
2013-02-11 16:52:00,61.0,24.0,30.09,NW,304,10.0,14.0,24,0.00,,,0.00,,2013-02-11 23:52:00,
2013-02-11 17:01:00,60.0,23.0,30.10,NW,326,10.0,14.0,24,0.00,,,0.00,,2013-02-12 00:01:00,
2013-02-11 17:11:00,60.0,23.0,30.10,NW,326,10.0,14.0,24,0.00,,,0.00,,2013-02-12 00:11:00,
2013-02-11 17:21:00,60.0,23.0,30.10,NW,306,8.0,13.0,24,0.00,,,0.00,,2013-02-12 00:21:00,
2013-02-11 17:31:00,60.0,22.0,30.10,NW,322,9.0,15.0,23,0.00,,,0.00,,2013-02-12 00:31:00,
2013-02-11 17:41:00,60.0,22.0,30.10,NW,322,9.0,15.0,23,0.00,,,0.00,,2013-02-12 00:41:00,
2013-02-11 17:52:00,60.0,22.0,30.10,North,354,10.0,10.0,23,0.00,,,0.00,,2013-02-12 00:52:00,
2013-02-11 18:01:00,59.0,21.0,30.10,NNW,336,6.0,8.0,23,0.00,,,0.00,,2013-02-12 01:01:00,
2013-02-11 18:11:00,59.0,21.0,30.10,NNW,336,6.0,8.0,23,0.00,,,0.00,,2013-02-12 01:11:00,
2013-02-11 18:21:00,59.0,22.0,30.11,NW,325,5.0,6.0,24,0.00,,,0.00,,2013-02-12 01:21:00,
2013-02-11 18:31:00,58.0,21.0,30.11,NW,317,7.0,9.0,24,0.00,,,0.00,,2013-02-12 01:31:00,
2013-02-11 18:41:00,58.0,21.0,30.11,NW,317,7.0,9.0,24,0.00,,,0.00,,2013-02-12 01:41:00,
2013-02-11 18:52:00,58.0,22.0,30.12,NW,320,5.0,9.0,25,0.00,,,0.00,,2013-02-12 01:52:00,
2013-02-11 19:01:00,57.0,22.0,30.13,NW,320,4.0,6.0,26,0.00,,,0.00,,2013-02-12 02:01:00,
2013-02-11 19:11:00,56.0,22.0,30.13,NNW,327,3.0,5.0,26,0.00,,,0.00,,2013-02-12 02:11:00,
2013-02-11 19:21:00,56.0,22.0,30.13,NNW,327,3.0,5.0,26,0.00,,,0.00,,2013-02-12 02:21:00,
2013-02-11 19:31:00,55.0,23.0,30.14,NNW,331,2.0,5.0,28,0.00,,,0.00,,2013-02-12 02:31:00,
2013-02-11 19:41:00,55.0,23.0,30.14,NNW,331,2.0,5.0,28,0.00,,,0.00,,2013-02-12 02:41:00,
2013-02-11 19:52:00,55.0,23.0,30.14,North,359,2.0,3.0,28,0.00,,,0.00,,2013-02-12 02:52:00,
2013-02-11 20:01:00,54.0,24.0,30.14,North,354,1.0,1.0,31,0.00,,,0.00,,2013-02-12 03:01:00,
2013-02-11 20:11:00,53.0,25.0,30.14,North,354,0.0,1.0,33,0.00,,,0.00,,2013-02-12 03:11:00,
2013-02-11 20:21:00,53.0,25.0,30.14,North,354,0.0,1.0,33,0.00,,,0.00,,2013-02-12 03:21:00,
2013-02-11 20:31:00,51.0,24.0,30.15,North,354,0.0,0.0,35,0.00,,,0.00,,2013-02-12 03:31:00,
2013-02-11 20:41:00,50.0,24.0,30.15,North,4,0.0,0.0,36,0.00,,,0.00,,2013-02-12 03:41:00,
2013-02-11 20:51:00,50.0,24.0,30.15,North,4,0.0,0.0,36,0.00,,,0.00,,2013-02-12 03:51:00,
2013-02-11 21:01:00,49.0,25.0,30.16,North,4,0.0,0.0,39,0.00,,,0.00,,2013-02-12 04:01:00,
2013-02-11 21:11:00,49.0,25.0,30.16,North,4,0.0,0.0,39,0.00,,,0.00,,2013-02-12 04:11:00,
2013-02-11 21:21:00,49.0,26.0,30.16,North,4,0.0,0.0,40,0.00,,,0.00,,2013-02-12 04:21:00,
2013-02-11 21:31:00,48.0,26.0,30.16,North,4,0.0,0.0,42,0.00,,,0.00,,2013-02-12 04:31:00,
2013-02-11 21:41:00,48.0,26.0,30.16,North,4,0.0,0.0,42,0.00,,,0.00,,2013-02-12 04:41:00,
2013-02-11 21:51:00,47.0,26.0,30.17,North,4,0.0,1.0,43,0.00,,,0.00,,2013-02-12 04:51:00,
2013-02-11 22:01:00,47.0,27.0,30.17,North,4,0.0,0.0,45,0.00,,,0.00,,2013-02-12 05:01:00,
2013-02-11 22:11:00,46.0,26.0,30.17,North,4,0.0,0.0,46,0.00,,,0.00,,2013-02-12 05:11:00,
2013-02-11 22:21:00,46.0,26.0,30.17,North,4,0.0,0.0,46,0.00,,,0.00,,2013-02-12 05:21:00,
2013-02-11 22:31:00,46.0,27.0,30.18,North,4,0.0,0.0,47,0.00,,,0.00,,2013-02-12 05:31:00,
2013-02-11 22:41:00,46.0,27.0,30.18,North,4,0.0,0.0,47,0.00,,,0.00,,2013-02-12 05:41:00,
2013-02-11 22:52:00,45.0,27.0,30.18,North,4,0.0,1.0,49,0.00,,,0.00,,2013-02-12 05:52:00,
2013-02-11 23:01:00,45.0,27.0,30.18,North,4,1.0,2.0,49,0.00,,,0.00,,2013-02-12 06:01:00,
2013-02-11 23:11:00,45.0,27.0,30.19,North,4,0.0,0.0,50,0.00,,,0.00,,2013-02-12 06:11:00,
2013-02-11 23:21:00,45.0,27.0,30.19,North,4,0.0,0.0,50,0.00,,,0.00,,2013-02-12 06:21:00,
2013-02-11 23:31:00,45.0,29.0,30.19,North,4,1.0,1.0,54,0.00,,,0.00,,2013-02-12 06:31:00,
2013-02-11 23:42:00,45.0,27.0,30.19,North,4,1.0,1.0,50,0.00,,,0.00,,2013-02-12 06:42:00,
2013-02-11 23:52:00,45.0,27.0,30.19,North,4,1.0,1.0,50,0.00,,,0.00,,2013-02-12 06:52:00,